Weather History for KFET - February, 2014

Change the Weather History Date:

Monday, February 17, 2014

  Actual Average Record
Temperature  
Mean Temperature 42 °F -  
Max Temperature 54 °F 39 °F 71 °F (1981)
Min Temperature 29 °F 18 °F -14 °F (1979)
Degree Days  
Heating Degree Days 24    
Moisture  
Dew Point 28 °F    
Average Humidity 67    
Maximum Humidity 100    
Minimum Humidity 29    
Precipitation  
Precipitation 0.03 in - - ()
Sea Level Pressure  
Sea Level Pressure 29.87 in    
Wind  
Wind Speed 12 mph (WSW)    
Max Wind Speed 31 mph    
Max Gust Speed 37 mph    
Visibility 9 miles    
Events Snow    
Averages and records for this station are not official NWS values.
T = Trace of Precipitation, MM = Missing Value Source: NWS Daily Summary

Daily Weather History Graph

Daily Weather History Graph

Search for Another Location

Airport or City:

Trip Planner

Search our weather history database for the weather conditions in past years. The results will help you decide how hot, cold, wet, or windy it might be!

Date:

Astronomy

Feb. 17, 2014 Rise Set
Actual Time 7:18 AM CST 6:02 PM CST
Civil Twilight 6:50 AM CST 6:30 PM CST
Nautical Twilight 6:17 AM CST 7:03 PM CST
Astronomical Twilight 5:45 AM CST 7:35 PM CST
Moon 9:00 PM CST (2/17) 8:17 AM CST (2/17)
Length of Visible Light 11h 40m
Length of Day
10h 44m
Waning Gibbous, 93% of the Moon is Illuminated
Feb 17
Waning Gibbous
Feb 22
Last Quarter
Mar 1
New
Mar 8
First Quarter
Mar 16
Full

Hourly Weather History & Observations

Time (CST) Temp. Windchill Dew Point Humidity Pressure Visibility Wind Dir Wind Speed Gust Speed Precip Events Conditions
12:15 AM 31.8 °F 23.3 °F 28.0 °F 86% 29.84 in 10.0 mi SE 10.4 mph 16.1 mph N/A   Clear
12:35 AM 31.6 °F 22.6 °F 28.0 °F 87% 29.84 in 10.0 mi SE 11.5 mph 16.1 mph N/A   Clear
12:55 AM 31.5 °F 21.8 °F 28.0 °F 87% 29.83 in 10.0 mi SE 12.7 mph 18.4 mph N/A   Clear
1:15 AM 31.5 °F 23.5 °F 29.1 °F 91% 29.83 in 7.0 mi SE 9.2 mph - N/A   Mostly Cloudy
1:35 AM 31.1 °F 21.9 °F 29.5 °F 94% 29.81 in 7.0 mi ESE 11.5 mph - N/A   Mostly Cloudy
1:55 AM 30.7 °F 21.4 °F 29.3 °F 94% 29.79 in 7.0 mi ESE 11.5 mph - N/A   Mostly Cloudy
2:15 AM 30.6 °F 21.8 °F 29.3 °F 95% 29.79 in 7.0 mi SE 10.4 mph - N/A   Overcast
2:35 AM 30.6 °F 21.2 °F 29.3 °F 95% 29.78 in 7.0 mi SE 11.5 mph 18.4 mph N/A   Overcast
2:55 AM 30.6 °F 23.1 °F 29.3 °F 95% 29.78 in 7.0 mi SSE 8.1 mph - N/A   Overcast
3:15 AM 30.4 °F 25.6 °F 29.3 °F 96% 29.81 in 7.0 mi SW 4.6 mph - N/A   Mostly Cloudy
3:35 AM 30.6 °F 23.8 °F 29.3 °F 95% 29.84 in 7.0 mi WSW 6.9 mph - N/A   Overcast
3:55 AM 30.2 °F 26.7 °F 29.7 °F 98% 29.83 in 2.5 mi WSW 3.5 mph - N/A Snow Light Snow
4:15 AM 30.0 °F 26.5 °F 30.0 °F 100% 29.82 in 1.0 mi SSW 3.5 mph - N/A Snow Snow
4:35 AM 29.8 °F - 29.8 °F 100% 29.82 in 1.5 mi Calm Calm - 0.01 in Snow Light Snow
4:55 AM 30.0 °F 25.2 °F 30.0 °F 100% 29.82 in 3.0 mi SSW 4.6 mph - 0.01 in Snow Light Snow
5:15 AM 30.0 °F 25.2 °F 30.0 °F 100% 29.82 in 4.0 mi SW 4.6 mph - 0.01 in   Scattered Clouds
5:35 AM 30.2 °F 25.4 °F 30.2 °F 100% 29.82 in 5.0 mi SSW 4.6 mph - 0.01 in   Scattered Clouds
5:55 AM 30.7 °F 24.9 °F 30.7 °F 100% 29.83 in 5.0 mi WSW 5.8 mph - 0.01 in   Scattered Clouds
6:15 AM 31.1 °F 22.4 °F 31.1 °F 100% 29.84 in 5.0 mi West 10.4 mph - N/A   Clear
6:35 AM 31.6 °F 22.6 °F 31.6 °F 100% 29.85 in 5.0 mi West 11.5 mph - N/A   Clear
6:55 AM 32.5 °F 24.2 °F 32.5 °F 100% 29.85 in 5.0 mi West 10.4 mph - N/A   Clear
7:15 AM 33.3 °F 24.6 °F 33.3 °F 100% 29.85 in 10.0 mi West 11.5 mph - N/A   Clear
7:35 AM 33.8 °F 24.8 °F 33.6 °F 99% 29.86 in 10.0 mi West 12.7 mph - 0.01 in   Clear
7:55 AM 33.8 °F 26.4 °F 33.1 °F 97% 29.87 in 10.0 mi West 9.2 mph - 0.01 in   Clear
8:15 AM 33.8 °F 25.8 °F 33.3 °F 98% 29.87 in 10.0 mi West 10.4 mph - N/A   Clear
8:35 AM 34.2 °F 26.2 °F 33.1 °F 96% 29.89 in 10.0 mi West 10.4 mph - N/A   Clear
8:55 AM 35.1 °F 27.4 °F 33.8 °F 95% 29.89 in 10.0 mi West 10.4 mph - N/A   Clear
9:15 AM 37.4 °F 27.2 °F 34.3 °F 89% 29.89 in 10.0 mi West 19.6 mph 24.2 mph N/A   Clear
9:35 AM 37.8 °F 28.0 °F 34.2 °F 87% 29.90 in 10.0 mi West 18.4 mph 25.3 mph N/A   Clear
9:55 AM 39.4 °F 29.5 °F 35.1 °F 84% 29.91 in 10.0 mi West 20.7 mph 24.2 mph N/A   Clear
10:15 AM 41.0 °F 31.9 °F 35.8 °F 82% 29.92 in 10.0 mi West 19.6 mph 25.3 mph N/A   Clear
10:35 AM 42.8 °F 33.1 °F 36.1 °F 77% 29.93 in 10.0 mi West 25.3 mph 29.9 mph N/A   Clear
10:55 AM 44.4 °F 35.9 °F 36.0 °F 72% 29.93 in 10.0 mi West 21.9 mph 28.8 mph N/A   Clear
11:15 AM 45.5 °F 37.1 °F 34.3 °F 65% 29.93 in 10.0 mi WNW 23.0 mph 32.2 mph N/A   Clear
11:35 AM 47.1 °F - 33.4 °F 59% 29.92 in 10.0 mi WNW 24.2 mph 29.9 mph N/A   Clear
11:55 AM 48.4 °F - 32.0 °F 53% 29.92 in 10.0 mi WNW 21.9 mph 29.9 mph N/A   Clear
12:15 PM 49.8 °F - 31.8 °F 50% 29.92 in 10.0 mi WNW 24.2 mph 27.6 mph N/A   Clear
12:35 PM 50.7 °F - 29.7 °F 44% 29.91 in 10.0 mi WNW 24.2 mph 31.1 mph N/A   Clear
12:55 PM 51.6 °F - 30.6 °F 45% 29.90 in 10.0 mi WNW 19.6 mph 29.9 mph N/A   Clear
1:15 PM 52.9 °F - 28.6 °F 39% 29.89 in 10.0 mi WNW 20.7 mph 33.4 mph N/A   Clear
1:35 PM 53.2 °F - 26.2 °F 35% 29.89 in 10.0 mi WNW 27.6 mph 34.5 mph N/A   Clear
1:55 PM 54.0 °F - 25.2 °F 33% 29.89 in 10.0 mi WNW 26.5 mph 36.8 mph N/A   Clear
2:15 PM 54.0 °F - 23.7 °F 31% 29.89 in 10.0 mi WNW 29.9 mph 36.8 mph N/A   Clear
2:35 PM 54.0 °F - 23.2 °F 30% 29.89 in 10.0 mi WNW 27.6 mph 33.4 mph N/A   Clear
2:55 PM 54.3 °F - 23.5 °F 30% 29.89 in 10.0 mi WNW 25.3 mph 32.2 mph N/A   Clear
3:15 PM 54.3 °F - 23.0 °F 30% 29.90 in 10.0 mi WNW 31.1 mph - N/A   Clear
3:35 PM 54.3 °F - 23.5 °F 30% 29.90 in 10.0 mi WNW 21.9 mph 29.9 mph N/A   Clear
3:55 PM 54.1 °F - 22.8 °F 30% 29.90 in 10.0 mi WNW 26.5 mph 31.1 mph N/A   Clear
4:15 PM 54.1 °F - 23.0 °F 30% 29.90 in 10.0 mi WNW 18.4 mph 26.5 mph N/A   Clear
4:35 PM 53.8 °F - 22.3 °F 29% 29.90 in 10.0 mi WNW 17.3 mph 27.6 mph N/A   Clear
4:55 PM 53.1 °F - 22.8 °F 31% 29.90 in 10.0 mi WNW 17.3 mph - N/A   Clear
5:15 PM 51.6 °F - 23.4 °F 33% 29.91 in 10.0 mi WNW 9.2 mph - N/A   Clear
5:35 PM 49.1 °F - 23.9 °F 37% 29.90 in 10.0 mi Calm Calm - N/A   Clear
5:55 PM 46.6 °F - 23.0 °F 39% 29.90 in 10.0 mi Calm Calm - N/A   Clear
6:15 PM 43.9 °F 42.3 °F 23.0 °F 44% 29.91 in 10.0 mi SW 3.5 mph - N/A   Clear
6:35 PM 40.5 °F - 23.5 °F 51% 29.91 in 10.0 mi Calm Calm - N/A   Clear
6:55 PM 40.1 °F - 24.3 °F 53% 29.90 in 10.0 mi Calm Calm - N/A   Clear
7:15 PM 38.5 °F 36.1 °F 23.9 °F 56% 29.89 in 10.0 mi SSE 3.5 mph - N/A   Clear
7:35 PM 35.6 °F 32.8 °F 24.1 °F 63% 29.89 in 10.0 mi SSE 3.5 mph - N/A   Clear
7:55 PM 33.3 °F 27.9 °F 24.1 °F 69% 29.88 in 10.0 mi SSE 5.8 mph - N/A   Clear
8:15 PM 34.0 °F 29.8 °F 24.1 °F 67% 29.87 in 10.0 mi SSE 4.6 mph - N/A   Clear
8:35 PM 31.8 °F 27.3 °F 24.4 °F 74% 29.86 in 10.0 mi SSE 4.6 mph - N/A   Clear
8:55 PM 35.1 °F 30.1 °F 23.7 °F 63% 29.85 in 10.0 mi SSE 5.8 mph - N/A   Clear
9:15 PM 37.4 °F 32.8 °F 22.3 °F 54% 29.84 in 10.0 mi SE 5.8 mph - N/A   Clear
9:35 PM 38.8 °F 35.4 °F 21.6 °F 50% 29.85 in 10.0 mi SSE 4.6 mph - N/A   Clear
9:55 PM 42.4 °F 37.0 °F 22.1 °F 44% 29.84 in 10.0 mi South 9.2 mph - N/A   Clear
10:15 PM 43.7 °F 38.6 °F 21.4 °F 41% 29.85 in 10.0 mi South 9.2 mph - N/A   Clear
10:35 PM 43.9 °F 38.3 °F 21.2 °F 41% 29.84 in 10.0 mi South 10.4 mph - N/A   Clear
10:55 PM 43.2 °F 36.6 °F 21.4 °F 42% 29.83 in 10.0 mi South 12.7 mph - N/A   Clear
11:15 PM 42.1 °F 37.1 °F 21.7 °F 44% 29.82 in 10.0 mi South 8.1 mph 16.1 mph N/A   Clear
11:35 PM 40.5 °F 35.8 °F 22.6 °F 49% 29.81 in 10.0 mi SSE 6.9 mph - N/A   Clear
11:55 PM 40.1 °F 36.1 °F 23.0 °F 51% 29.80 in 10.0 mi SSE 5.8 mph - N/A   Clear